Nellis AFB, NV

1:44 AM PST on December 11, 2019 (GMT -0800)
Nellis Air Force Base

Weather History for KLSV - September, 2019

Change the Weather History Date:

Tuesday, September 3, 2019

  Actual Average Record
Temperature  
Mean Temperature 92 °F -  
Max Temperature 105 °F 96 °F 107 °F (1996)
Min Temperature 80 °F 72 °F 62 °F (1999)
Cooling Degree Days 27    
Growing Degree Days 42 (Base 50)    
Moisture  
Dew Point 52 °F    
Average Humidity 26    
Maximum Humidity 40    
Minimum Humidity 15    
Precipitation  
Precipitation 0.00 in - - ()
Sea Level Pressure  
Sea Level Pressure 29.81 in    
Wind  
Wind Speed 3 mph (North)    
Max Wind Speed 8 mph    
Max Gust Speed -    
Visibility 10 miles    
Events      
Averages and records for this station are not official NWS values.
T = Trace of Precipitation, MM = Missing Value Source: NWS Daily Summary

Daily Weather History Graph

Daily Weather History Graph

Search for Another Location

Airport or City:

Astronomy

Sep. 03, 2019 Rise Set
Actual Time 6:13 AM PDT 7:05 PM PDT
Civil Twilight 5:46 AM PDT 7:31 PM PDT
Nautical Twilight 5:15 AM PDT 8:02 PM PDT
Astronomical Twilight 4:43 AM PDT 8:34 PM PDT
Moon 11:02 AM PDT (9/3) 10:13 PM PDT (9/3)
Length of Visible Light 13h 44m
Length of Day
12h 52m
Waxing Crescent, 25% of the Moon is Illuminated
Sep 3
Waxing Crescent
Sep 5
First Quarter
Sep 13
Full
Sep 21
Last Quarter
Sep 28
New

Hourly Weather History & Observations

Time (PDT) Temp. Heat Index Dew Point Humidity Pressure Visibility Wind Dir Wind Speed Gust Speed Precip Events Conditions
12:58 AM 88.0 °F 86.5 °F 56.1 °F 34% 29.83 in 10.0 mi NNE 4.6 mph - N/A   Clear
1:58 AM 86.5 °F 84.6 °F 53.6 °F 32% 29.78 in 10.0 mi North 1.2 mph - N/A   Clear
2:58 AM 84.2 °F - 52.2 °F 33% 29.78 in 10.0 mi NNE 1.2 mph - N/A   Clear
3:58 AM 81.3 °F - 50.5 °F 34% 29.79 in 10.0 mi North 2.3 mph - N/A   Clear
4:58 AM 82.4 °F - 51.8 °F 35% 29.79 in 10.0 mi NNE 1.2 mph - N/A   Clear
5:58 AM 80.6 °F - 51.4 °F 36% 29.80 in 10.0 mi ENE 2.3 mph - N/A   Partly Cloudy
6:58 AM 82.0 °F 81.5 °F 55.2 °F 40% 29.87 in 10.0 mi NNE 6.9 mph - N/A   Clear
7:58 AM 87.4 °F 85.7 °F 54.7 °F 33% 29.88 in 10.0 mi Calm Calm - N/A   Clear
8:58 AM 92.3 °F 90.5 °F 55.4 °F 29% 29.88 in 10.0 mi Calm Calm - N/A   Clear
9:58 AM 95.0 °F 93.4 °F 55.8 °F 27% 29.88 in 10.0 mi ENE 6.9 mph - N/A   Clear
10:58 AM 96.1 °F 94.5 °F 55.6 °F 26% 29.87 in 10.0 mi NE 4.6 mph - N/A   Clear
11:58 AM 98.4 °F 96.5 °F 54.1 °F 23% 29.85 in 10.0 mi North 3.5 mph - N/A   Clear
12:58 PM 100.8 °F - 52.3 °F 20% 29.82 in 10.0 mi South 3.5 mph - N/A   Clear
1:58 PM 102.9 °F - 49.6 °F 17% 29.87 in 10.0 mi SSW 5.8 mph - N/A   Clear
2:58 PM 104.0 °F - 48.9 °F 16% 29.76 in 10.0 mi NNE 3.5 mph - N/A   Clear
3:58 PM 104.2 °F - 47.3 °F 15% 29.82 in 10.0 mi Calm Calm - N/A   Clear
4:58 PM 103.8 °F - 48.7 °F 16% 29.81 in 10.0 mi Calm Calm - N/A   Clear
5:58 PM 102.7 °F - 47.8 °F 16% 29.80 in 10.0 mi South 8.1 mph - N/A   Clear
6:58 PM 100.8 °F - 52.3 °F 20% 29.73 in 10.0 mi West 8.1 mph - N/A   Clear
7:58 PM 99.0 °F - 50.9 °F 20% 29.75 in 10.0 mi West 8.1 mph - N/A   Partly Cloudy
8:58 PM 97.2 °F - 50.7 °F 21% 29.76 in 10.0 mi Calm Calm - N/A   Clear
9:58 PM 95.0 °F - 50.2 °F 22% 29.77 in 10.0 mi West 5.8 mph - N/A   Clear
10:58 PM 91.9 °F - 48.7 °F 23% 29.77 in 10.0 mi West 1.2 mph - N/A   Clear
11:58 PM 87.4 °F - 47.3 °F 25% 29.76 in 10.0 mi Calm Calm - N/A   Clear